When you browse on this site, cookies collect data to enhance your experience and personalize the content and advertising you see.
Visit our Privacy Policy to learn more. By continuing to use the site, you agree to this use of cookies and data.
  • In United Kingdom
  • List of Countries
  • For 7 days
  • Water Temperature
  • Satellite Maps
  • Weather Map
  • Weather Widgets
  • user-avatar
    Login

    Hourly Weather San Pedro Mixtepec

    Today, 19 May, Sunday

    Time Temperature Precipitation Wind Pressure Humidity
    00:00 +17°C° 0 mm 0 mps 601 mmHg 89%
    01:00 +16°C° 0.1 mm 0 mps 601 mmHg 89%
    02:00 +16°C° 0.1 mm 0 mps 600 mmHg 89%
    03:00 +16°C° 0.1 mm 0 mps 600 mmHg 89%
    04:00 +15°C° 0 mm 0 mps 600 mmHg 88%
    05:00 +15°C° 0 mm 0 mps 599 mmHg 88%
    06:00 +16°C° 0 mm 1 mps 599 mmHg 87%
    07:00 +19°C° 0 mm 1 mps 600 mmHg 75%
    08:00 +21°C° 0 mm 1 mps 602 mmHg 62%
    09:00 +24°C° 0 mm 1 mps 603 mmHg 50%
    10:00 +25°C° 0 mm 1 mps 603 mmHg 44%
    11:00 +27°C° 0 mm 2 mps 604 mmHg 39%
    12:00 +28°C° 0 mm 2 mps 604 mmHg 33%
    13:00 +28°C° 0.1 mm 2 mps 604 mmHg 35%
    14:00 +27°C° 0.1 mm 2 mps 603 mmHg 37%
    15:00 +27°C° 0.1 mm 3 mps 603 mmHg 39%
    16:00 +26°C° 0.3 mm 3 mps 602 mmHg 47%
    17:00 +25°C° 0.3 mm 3 mps 602 mmHg 55%
    18:00 +22°C° 0.3 mm 3 mps 601 mmHg 62%
    19:00 +21°C° 0 mm 2 mps 601 mmHg 70%
    20:00 +20°C° 0 mm 2 mps 601 mmHg 79%
    21:00 +20°C° 0 mm 1 mps 601 mmHg 87%
    22:00 +19°C° 0 mm 1 mps 601 mmHg 87%
    23:00 +19°C° 0 mm 1 mps 602 mmHg 88%

    Tomorrow, 20 May, Monday

    Time Temperature Precipitation Wind Pressure Humidity
    00:00 +18°C° 0 mm 1 mps 602 mmHg 89%
    01:00 +18°C° 0 mm 1 mps 601 mmHg 87%
    02:00 +16°C° 0 mm 1 mps 600 mmHg 86%
    03:00 +16°C° 0 mm 1 mps 600 mmHg 84%
    04:00 +15°C° 0 mm 1 mps 600 mmHg 80%
    05:00 +15°C° 0 mm 1 mps 599 mmHg 76%
    06:00 +15°C° 0 mm 1 mps 599 mmHg 71%
    07:00 +18°C° 0 mm 1 mps 601 mmHg 63%
    08:00 +20°C° 0 mm 1 mps 602 mmHg 55%
    09:00 +23°C° 0 mm 1 mps 603 mmHg 47%
    10:00 +24°C° 0 mm 1 mps 604 mmHg 43%
    11:00 +26°C° 0 mm 1 mps 604 mmHg 39%
    12:00 +27°C° 0 mm 1 mps 605 mmHg 35%
    13:00 +27°C° 0.2 mm 1 mps 604 mmHg 37%
    14:00 +27°C° 0.2 mm 2 mps 603 mmHg 39%
    15:00 +27°C° 0.2 mm 2 mps 603 mmHg 40%
    16:00 +25°C° 0.4 mm 2 mps 602 mmHg 48%
    17:00 +24°C° 0.4 mm 2 mps 602 mmHg 55%
    18:00 +23°C° 0.4 mm 2 mps 601 mmHg 62%
    19:00 +22°C° 0.7 mm 1 mps 601 mmHg 69%
    20:00 +20°C° 0.7 mm 1 mps 601 mmHg 77%
    21:00 +17°C° 0.7 mm 0 mps 601 mmHg 84%
    22:00 +17°C° 0.4 mm 0 mps 601 mmHg 85%
    23:00 +17°C° 0.4 mm 0 mps 601 mmHg 86%

    Day after tomorrow, 21 May, Tuesday

    Time Temperature Precipitation Wind Pressure Humidity
    00:00 +16°C° 0.4 mm 0 mps 601 mmHg 87%
    01:00 +16°C° 0.1 mm 0 mps 601 mmHg 87%
    02:00 +16°C° 0.1 mm 0 mps 600 mmHg 87%
    03:00 +15°C° 0.1 mm 0 mps 600 mmHg 87%
    04:00 +15°C° 0 mm 0 mps 599 mmHg 87%
    05:00 +15°C° 0 mm 0 mps 599 mmHg 87%
    06:00 +15°C° 0 mm 0 mps 599 mmHg 87%
    07:00 +17°C° 0 mm 0 mps 600 mmHg 79%
    08:00 +19°C° 0 mm 0 mps 601 mmHg 70%
    09:00 +21°C° 0 mm 0 mps 603 mmHg 62%
    10:00 +22°C° 0.1 mm 0 mps 603 mmHg 59%
    11:00 +23°C° 0.1 mm 0 mps 603 mmHg 57%
    12:00 +25°C° 0.1 mm 1 mps 603 mmHg 54%
    13:00 +26°C° 0.2 mm 1 mps 602 mmHg 53%
    14:00 +26°C° 0.2 mm 1 mps 602 mmHg 51%
    15:00 +26°C° 0.2 mm 1 mps 602 mmHg 50%
    16:00 +25°C° 0.3 mm 1 mps 601 mmHg 57%
    17:00 +24°C° 0.3 mm 1 mps 600 mmHg 64%
    18:00 +21°C° 0.3 mm 2 mps 600 mmHg 72%
    19:00 +22°C° 0.4 mm 1 mps 600 mmHg 77%
    20:00 +21°C° 0.4 mm 1 mps 601 mmHg 82%
    21:00 +20°C° 0.4 mm 1 mps 601 mmHg 86%
    22:00 +20°C° 0.2 mm 1 mps 601 mmHg 88%
    23:00 +20°C° 0.2 mm 1 mps 601 mmHg 89%

    22 May, Wednesday

    Time Temperature Precipitation Wind Pressure Humidity
    00:00 +19°C° 0.2 mm 1 mps 601 mmHg 90%
    01:00 +17°C° 0.2 mm 0 mps 601 mmHg 90%
    02:00 +17°C° 0.2 mm 0 mps 600 mmHg 91%
    03:00 +17°C° 0.2 mm 0 mps 600 mmHg 91%
    04:00 +16°C° 0.1 mm 0 mps 600 mmHg 92%
    05:00 +16°C° 0.1 mm 0 mps 599 mmHg 92%
    06:00 +16°C° 0.1 mm 0 mps 599 mmHg 93%
    07:00 +17°C° 0 mm 0 mps 600 mmHg 84%
    08:00 +19°C° 0 mm 0 mps 601 mmHg 74%
    09:00 +23°C° 0 mm 1 mps 602 mmHg 65%
    10:00 +24°C° 0 mm 1 mps 603 mmHg 59%
    11:00 +25°C° 0 mm 1 mps 603 mmHg 53%
    12:00 +26°C° 0 mm 1 mps 603 mmHg 47%
    13:00 +26°C° 0.2 mm 1 mps 603 mmHg 48%
    14:00 +26°C° 0.2 mm 2 mps 602 mmHg 49%
    15:00 +26°C° 0.2 mm 2 mps 602 mmHg 50%
    16:00 +25°C° 0.4 mm 2 mps 601 mmHg 56%
    17:00 +24°C° 0.4 mm 2 mps 601 mmHg 62%
    18:00 +23°C° 0.4 mm 2 mps 601 mmHg 68%
    19:00 +21°C° 0.7 mm 2 mps 601 mmHg 74%
    20:00 +21°C° 0.7 mm 1 mps 601 mmHg 80%
    21:00 +20°C° 0.7 mm 1 mps 602 mmHg 86%
    22:00 +20°C° 0.4 mm 1 mps 601 mmHg 87%
    23:00 +19°C° 0.4 mm 1 mps 601 mmHg 88%

    23 May, Thursday

    Time Temperature Precipitation Wind Pressure Humidity
    00:00 +17°C° 0.4 mm 0 mps 601 mmHg 88%
    01:00 +17°C° 0.1 mm 0 mps 601 mmHg 88%
    02:00 +16°C° 0.1 mm 0 mps 600 mmHg 88%
    03:00 +16°C° 0.1 mm 0 mps 600 mmHg 88%
    04:00 +18°C° 0 mm 1 mps 600 mmHg 86%
    05:00 +16°C° 0 mm 1 mps 600 mmHg 85%
    06:00 +16°C° 0 mm 1 mps 600 mmHg 84%
    07:00 +19°C° 0 mm 1 mps 601 mmHg 76%
    08:00 +21°C° 0 mm 1 mps 602 mmHg 67%
    09:00 +23°C° 0 mm 1 mps 603 mmHg 59%
    10:00 +24°C° 0.2 mm 1 mps 603 mmHg 56%
    11:00 +25°C° 0.2 mm 2 mps 603 mmHg 54%
    12:00 +25°C° 0.2 mm 2 mps 603 mmHg 51%
    13:00 +25°C° 0.9 mm 2 mps 603 mmHg 54%
    14:00 +25°C° 0.9 mm 2 mps 602 mmHg 57%
    15:00 +25°C° 0.9 mm 2 mps 602 mmHg 60%
    16:00 +24°C° 1.8 mm 2 mps 601 mmHg 65%
    17:00 +23°C° 1.8 mm 2 mps 601 mmHg 71%
    18:00 +20°C° 1.8 mm 2 mps 601 mmHg 76%
    19:00 +20°C° 1.5 mm 2 mps 601 mmHg 80%
    20:00 +20°C° 1.5 mm 1 mps 601 mmHg 83%
    21:00 +19°C° 1.5 mm 1 mps 602 mmHg 86%
    22:00 +19°C° 0.7 mm 1 mps 601 mmHg 86%
    23:00 +19°C° 0.7 mm 1 mps 601 mmHg 87%

    24 May, Friday

    Time Temperature Precipitation Wind Pressure Humidity
    00:00 +19°C° 0.7 mm 1 mps 601 mmHg 87%
    01:00 +18°C° 0.2 mm 1 mps 601 mmHg 87%
    02:00 +18°C° 0.2 mm 1 mps 600 mmHg 88%
    03:00 +18°C° 0.2 mm 1 mps 600 mmHg 88%
    04:00 +18°C° 0.1 mm 1 mps 600 mmHg 88%
    05:00 +18°C° 0.1 mm 1 mps 600 mmHg 88%
    06:00 +18°C° 0.1 mm 1 mps 601 mmHg 88%
    07:00 +19°C° 0 mm 1 mps 601 mmHg 83%
    08:00 +20°C° 0 mm 1 mps 602 mmHg 78%
    09:00 +21°C° 0 mm 1 mps 603 mmHg 72%
    10:00 +21°C° 0.1 mm 2 mps 603 mmHg 69%
    11:00 +23°C° 0.1 mm 2 mps 603 mmHg 65%
    12:00 +24°C° 0.1 mm 2 mps 604 mmHg 61%
    13:00 +24°C° 0.4 mm 2 mps 603 mmHg 61%
    14:00 +24°C° 0.4 mm 2 mps 603 mmHg 62%
    15:00 +24°C° 0.4 mm 3 mps 602 mmHg 62%
    16:00 +23°C° 1.2 mm 2 mps 602 mmHg 67%
    17:00 +21°C° 1.2 mm 2 mps 602 mmHg 73%
    18:00 +20°C° 1.2 mm 2 mps 602 mmHg 78%
    19:00 +19°C° 0.8 mm 2 mps 602 mmHg 80%
    20:00 +19°C° 0.8 mm 2 mps 602 mmHg 83%
    21:00 +19°C° 0.8 mm 1 mps 602 mmHg 86%
    22:00 +19°C° 0.1 mm 1 mps 602 mmHg 86%
    23:00 +18°C° 0.1 mm 1 mps 602 mmHg 87%
    Show more